Location: Dead Woman Crossing
(43.5369°N, 106.3228°W)
Time: 18:54:34
(UTC+00:00)

BlueWalker 3 - Visible Passes

Search period start: 09 December 2022 00:00
Search period end: 19 December 2022 00:00
Orbit: 501 x 518 km, 53.2° (Epoch: 09 December)

Date Brightness Start Highest point End Pass type
(mag) Time Alt. Az. Time Alt. Az. Time Alt. Az.
09 Dec 1.8 01:22:02 10° NW 01:25:56 71° NNE 01:26:07 69° ENE visible
10 Dec 1.8 01:03:37 10° NW 01:07:32 75° NE 01:09:06 34° ESE visible
10 Dec 5.1 02:43:13 10° W 02:43:58 13° W 02:43:58 13° W visible
11 Dec 1.8 00:45:11 10° NW 00:49:06 79° NE 00:52:21 14° ESE visible
11 Dec 4.7 02:24:54 10° W 02:27:15 16° SW 02:27:15 16° SW visible
12 Dec 1.9 00:26:46 10° NW 00:30:41 84° NE 00:34:34 10° SE visible
12 Dec 4.8 02:06:37 10° W 02:08:51 15° SW 02:10:56 11° SSW visible
13 Dec 1.9 00:08:19 10° NW 00:12:15 89° NNE 00:16:08 10° SE visible
13 Dec 5.0 01:48:21 10° W 01:50:24 14° SW 01:52:25 10° SSW visible
14 Dec 5.1 01:30:07 10° W 01:31:55 13° SW 01:33:44 10° SSW visible
15 Dec 5.3 01:11:54 10° WSW 01:13:27 12° SW 01:14:59 10° SSW visible
16 Dec 5.5 00:53:46 10° WSW 00:54:58 11° SW 00:56:09 10° SW visible
17 Dec 5.8 00:35:50 10° WSW 00:36:28 10° SW 00:37:07 10° SW visible
